| time (UTC) | temp F | wind direction | speed MPH | gust MPH | rain 1hr in | rain 24hr in | rain mn in | humidity % | barometer mb |
| 20260506082041 | 83 | 136 | 2.0 | 6.0 | 0.00 | 0.00 | 0.00 | 92 | 1009.8 |
| 20260506081555 | 83 | 0 | 1.0 | 7.0 | 0.00 | 0.00 | 0.00 | 93 | 1009.8 |
| 20260506081039 | 83 | 126 | 0.0 | 8.0 | 0.00 | 0.00 | 0.00 | 93 | 1009.7 |
| 20260506080541 | 83 | 0 | 2.0 | 8.0 | 0.00 | 0.00 | 0.00 | 93 | 1009.7 |
| 20260506073053 | 83 | 115 | 4.0 | 9.0 | 0.00 | 0.00 | 0.00 | 93 | 1009.6 |
| 20260506072545 | 83 | 104 | 3.0 | 8.0 | 0.00 | 0.00 | 0.00 | 93 | 1009.7 |
| 20260506072043 | 83 | 88 | 3.0 | 8.0 | 0.00 | 0.00 | 0.00 | 93 | 1009.8 |
| 20260506071551 | 84 | 111 | 2.0 | 7.0 | 0.00 | 0.00 | 0.00 | 93 | 1009.7 |
| 20260506071042 | 84 | 93 | 2.0 | 10.0 | 0.00 | 0.00 | 0.00 | 93 | 1009.7 |
| 20260506070541 | 84 | 81 | 1.0 | 10.0 | 0.00 | 0.00 | 0.00 | 93 | 1009.8 |
| 20260506062041 | 84 | 96 | 5.0 | 11.0 | 0.00 | 0.00 | 0.00 | 91 | 1010.0 |
| 20260506061546 | 84 | 142 | 3.0 | 9.0 | 0.00 | 0.00 | 0.00 | 91 | 1010.1 |
| 20260506061039 | 84 | 87 | 3.0 | 10.0 | 0.00 | 0.00 | 0.00 | 91 | 1010.1 |
| 20260506060537 | 84 | 38 | 4.0 | 10.0 | 0.00 | 0.00 | 0.00 | 91 | 1010.1 |
| 20260506060104 | 84 | 38 | 5.0 | 10.0 | 0.00 | 0.00 | 0.00 | 91 | 1010.1 |
| 20260506051039 | 85 | 38 | 5.0 | 10.0 | 0.00 | 0.00 | 0.00 | 90 | 1010.3 |
| 20260506050540 | 85 | 78 | 5.0 | 10.0 | 0.00 | 0.00 | 0.00 | 90 | 1010.2 |
| 20260506045041 | 86 | 78 | 4.0 | 10.0 | 0.00 | 0.00 | 0.00 | 90 | 1010.0 |
| 20260506044554 | 86 | 84 | 3.0 | 10.0 | 0.00 | 0.00 | 0.00 | 90 | 1010.1 |
| 20260506044038 | 86 | 82 | 4.0 | 9.0 | 0.00 | 0.00 | 0.00 | 90 | 1010.1 |
| 20260506043542 | 86 | 59 | 5.0 | 11.0 | 0.00 | 0.00 | 0.00 | 90 | 1010.1 |
| 20260506043049 | 86 | 55 | 5.0 | 11.0 | 0.00 | 0.00 | 0.00 | 90 | 1010.1 |
| 20260506042540 | 86 | 68 | 4.0 | 9.0 | 0.00 | 0.00 | 0.00 | 90 | 1009.9 |
| 20260506042040 | 87 | 62 | 4.0 | 9.0 | 0.00 | 0.00 | 0.00 | 90 | 1009.9 |
| 20260506041549 | 87 | 21 | 4.0 | 9.0 | 0.00 | 0.00 | 0.00 | 89 | 1009.8 |
| 20260506041037 | 87 | 67 | 4.0 | 8.0 | 0.00 | 0.00 | 0.00 | 89 | 1009.8 |
| 20260506040539 | 87 | 92 | 4.0 | 9.0 | 0.00 | 0.00 | 0.00 | 89 | 1009.8 |
| 20260506040053 | 87 | 84 | 4.0 | 9.0 | 0.00 | 0.00 | 0.00 | 89 | 1009.8 |
| 20260506035541 | 87 | 84 | 5.0 | 10.0 | 0.00 | 0.00 | 0.00 | 89 | 1009.8 |
| 20260506035039 | 88 | 44 | 4.0 | 10.0 | 0.00 | 0.00 | 0.00 | 89 | 1009.8 |
| 20260506034544 | 88 | 87 | 3.0 | 9.0 | 0.00 | 0.00 | 0.00 | 88 | 1009.8 |
| 20260506034040 | 88 | 60 | 3.0 | 10.0 | 0.00 | 0.00 | 0.00 | 88 | 1009.7 |
| 20260506033539 | 88 | 86 | 5.0 | 10.0 | 0.00 | 0.00 | 0.00 | 88 | 1009.7 |
| 20260506033050 | 88 | 82 | 3.0 | 8.0 | 0.00 | 0.00 | 0.00 | 88 | 1009.7 |
| 20260506032544 | 88 | 71 | 3.0 | 8.0 | 0.00 | 0.00 | 0.00 | 88 | 1009.6 |
| 20260506032041 | 89 | 78 | 3.0 | 10.0 | 0.00 | 0.00 | 0.00 | 88 | 1009.5 |
| 20260506031551 | 89 | 57 | 5.0 | 10.0 | 0.00 | 0.00 | 0.00 | 88 | 1009.5 |
| 20260506031044 | 89 | 57 | 3.0 | 8.0 | 0.00 | 0.00 | 0.00 | 88 | 1009.5 |
| 20260506030543 | 89 | 61 | 3.0 | 8.0 | 0.00 | 0.00 | 0.00 | 88 | 1009.4 |
| 20260506030053 | 89 | 90 | 1.0 | 5.0 | 0.00 | 0.00 | 0.00 | 88 | 1009.4 |
| 20260506025539 | 89 | 119 | 3.0 | 5.0 | 0.00 | 0.00 | 0.00 | 88 | 1009.2 |
| 20260506025038 | 89 | 85 | 2.0 | 5.0 | 0.00 | 0.00 | 0.00 | 88 | 1009.3 |
| 20260506024557 | 89 | 65 | 2.0 | 7.0 | 0.00 | 0.00 | 0.00 | 88 | 1009.2 |
| 20260506024039 | 90 | 0 | 2.0 | 7.0 | 0.00 | 0.00 | 0.00 | 88 | 1009.2 |
| 20260506023540 | 90 | 63 | 3.0 | 7.0 | 0.00 | 0.00 | 0.00 | 87 | 1009.2 |
| 20260506023050 | 90 | 57 | 3.0 | 7.0 | 0.00 | 0.00 | 0.00 | 87 | 1009.0 |
| 20260506022540 | 90 | 76 | 3.0 | 9.0 | 0.00 | 0.00 | 0.00 | 87 | 1009.0 |
| 20260506022039 | 90 | 82 | 1.0 | 9.0 | 0.00 | 0.00 | 0.00 | 87 | 1009.0 |
| 20260506021552 | 90 | 84 | 4.0 | 9.0 | 0.00 | 0.00 | 0.00 | 86 | 1008.9 |
| 20260506021039 | 90 | 50 | 5.0 | 11.0 | 0.00 | 0.00 | 0.00 | 86 | 1008.8 |
| 20260506020539 | 91 | 71 | 4.0 | 11.0 | 0.00 | 0.00 | 0.00 | 86 | 1008.8 |
| 20260506020048 | 91 | 86 | 3.0 | 8.0 | 0.00 | 0.00 | 0.00 | 85 | 1008.6 |
| 20260506015541 | 91 | 126 | 3.0 | 8.0 | 0.00 | 0.00 | 0.00 | 85 | 1008.6 |
| 20260506015039 | 91 | 56 | 2.0 | 8.0 | 0.00 | 0.00 | 0.00 | 85 | 1008.5 |
| 20260506014549 | 92 | 63 | 3.0 | 10.0 | 0.00 | 0.00 | 0.00 | 84 | 1008.5 |
| 20260506014041 | 92 | 79 | 4.0 | 10.0 | 0.00 | 0.00 | 0.00 | 84 | 1008.5 |
| 20260506013539 | 92 | 57 | 3.0 | 7.0 | 0.00 | 0.00 | 0.00 | 84 | 1008.4 |
| 20260506013050 | 92 | 40 | 1.0 | 7.0 | 0.00 | 0.00 | 0.00 | 84 | 1008.4 |
| 20260506012540 | 92 | 39 | 0.0 | 4.0 | 0.00 | 0.00 | 0.00 | 84 | 1008.3 |
| 20260506012044 | 92 | 14 | 1.0 | 5.0 | 0.00 | 0.00 | 0.00 | 84 | 1008.2 |
| 20260506011546 | 93 | 61 | 0.0 | 6.0 | 0.00 | 0.00 | 0.00 | 84 | 1008.1 |
| 20260506011039 | 93 | 71 | 1.0 | 6.0 | 0.00 | 0.00 | 0.00 | 83 | 1008.2 |
| 20260506010541 | 94 | 0 | 1.0 | 6.0 | 0.00 | 0.00 | 0.00 | 82 | 1008.1 |
| 20260506010048 | 94 | 111 | 2.0 | 6.0 | 0.00 | 0.00 | 0.00 | 81 | 1008.0 |
| 20260506005541 | 95 | 0 | 1.0 | 8.0 | 0.00 | 0.00 | 0.00 | 79 | 1008.0 |
| 20260506005039 | 95 | 0 | 3.0 | 8.0 | 0.00 | 0.00 | 0.00 | 76 | 1008.0 |
| 20260506004546 | 95 | 43 | 4.0 | 8.0 | 0.00 | 0.00 | 0.00 | 75 | 1007.9 |
| 20260506004040 | 95 | 49 | 3.0 | 7.0 | 0.00 | 0.00 | 0.00 | 75 | 1007.9 |
| 20260506003539 | 95 | 65 | 3.0 | 7.0 | 0.00 | 0.00 | 0.00 | 75 | 1007.8 |
| 20260506003049 | 95 | 65 | 3.0 | 7.0 | 0.00 | 0.00 | 0.00 | 75 | 1007.9 |
| 20260506002541 | 95 | 87 | 3.0 | 7.0 | 0.00 | 0.00 | 0.00 | 75 | 1008.0 |
| 20260506002037 | 95 | 86 | 2.0 | 8.0 | 0.00 | 0.00 | 0.00 | 75 | 1007.9 |
| 20260506001552 | 96 | 36 | 3.0 | 8.0 | 0.00 | 0.00 | 0.00 | 75 | 1007.9 |
| 20260506001039 | 96 | 105 | 3.0 | 9.0 | 0.00 | 0.00 | 0.00 | 75 | 1007.9 |
| 20260506000537 | 96 | 45 | 4.0 | 9.0 | 0.00 | 0.00 | 0.00 | 74 | 1007.9 |
| 20260506000052 | 96 | 79 | 4.0 | 8.0 | 0.00 | 0.00 | 0.00 | 74 | 1007.9 |
| 20260505235536 | 96 | 42 | 3.0 | 9.0 | 0.00 | 0.00 | 0.00 | 73 | 1007.8 |
| 20260505235041 | 96 | 72 | 3.0 | 9.0 | 0.00 | 0.00 | 0.00 | 73 | 1007.8 |
| 20260505234550 | 96 | 92 | 5.0 | 9.0 | 0.00 | 0.00 | 0.00 | 73 | 1007.8 |
| 20260505234040 | 96 | 92 | 4.0 | 9.0 | 0.00 | 0.00 | 0.00 | 73 | 1007.8 |
| 20260505233536 | 97 | 90 | 5.0 | 9.0 | 0.00 | 0.00 | 0.00 | 72 | 1007.7 |
| 20260505233050 | 97 | 71 | 3.0 | 11.0 | 0.00 | 0.00 | 0.00 | 72 | 1007.7 |
| 20260505232542 | 97 | 101 | 6.0 | 11.0 | 0.00 | 0.00 | 0.00 | 71 | 1007.7 |
| 20260505232039 | 97 | 71 | 4.0 | 11.0 | 0.00 | 0.00 | 0.00 | 70 | 1007.9 |
| 20260505231600 | 97 | 107 | 5.0 | 11.0 | 0.00 | 0.00 | 0.00 | 70 | 1007.8 |
| 20260505231038 | 97 | 99 | 4.0 | 11.0 | 0.00 | 0.00 | 0.00 | 70 | 1007.9 |
| 20260505230538 | 97 | 58 | 6.0 | 11.0 | 0.00 | 0.00 | 0.00 | 70 | 1007.8 |
| 20260505230056 | 98 | 89 | 7.0 | 11.0 | 0.00 | 0.00 | 0.00 | 69 | 1007.8 |
| 20260505225536 | 98 | 98 | 4.0 | 11.0 | 0.00 | 0.00 | 0.00 | 70 | 1007.8 |
| 20260505225041 | 98 | 59 | 6.0 | 11.0 | 0.00 | 0.00 | 0.00 | 70 | 1007.9 |
| 20260505224548 | 98 | 56 | 6.0 | 10.0 | 0.00 | 0.00 | 0.00 | 71 | 1007.8 |
| 20260505224039 | 98 | 104 | 4.0 | 10.0 | 0.00 | 0.00 | 0.00 | 72 | 1007.9 |
| 20260505223538 | 98 | 90 | 4.0 | 9.0 | 0.00 | 0.00 | 0.00 | 72 | 1008.0 |
| 20260505223050 | 98 | 44 | 3.0 | 10.0 | 0.00 | 0.00 | 0.00 | 72 | 1008.0 |
| 20260505222539 | 98 | 41 | 4.0 | 10.0 | 0.00 | 0.00 | 0.00 | 72 | 1008.0 |
| 20260505222039 | 98 | 94 | 5.0 | 10.0 | 0.00 | 0.00 | 0.00 | 71 | 1008.0 |
| 20260505221553 | 98 | 63 | 3.0 | 10.0 | 0.00 | 0.00 | 0.00 | 71 | 1008.1 |
| 20260505221041 | 98 | 55 | 5.0 | 10.0 | 0.00 | 0.00 | 0.00 | 71 | 1008.1 |
| 20260505220539 | 98 | 86 | 2.0 | 9.0 | 0.00 | 0.00 | 0.00 | 70 | 1008.1 |
| 20260505220051 | 98 | 62 | 5.0 | 9.0 | 0.00 | 0.00 | 0.00 | 70 | 1008.2 |
| 20260505215539 | 98 | 74 | 4.0 | 10.0 | 0.00 | 0.00 | 0.00 | 70 | 1008.1 |
| 20260505215040 | 98 | 63 | 5.0 | 10.0 | 0.00 | 0.00 | 0.00 | 70 | 1008.2 |
| 20260505214550 | 98 | 98 | 5.0 | 10.0 | 0.00 | 0.00 | 0.00 | 70 | 1008.3 |
| 20260505214039 | 98 | 40 | 6.0 | 10.0 | 0.00 | 0.00 | 0.00 | 71 | 1008.3 |
| 20260505213535 | 98 | 121 | 4.0 | 10.0 | 0.00 | 0.00 | 0.00 | 71 | 1008.3 |
| 20260505213056 | 98 | 0 | 6.0 | 10.0 | 0.00 | 0.00 | 0.00 | 71 | 1008.3 |
| 20260505212540 | 98 | 53 | 4.0 | 10.0 | 0.00 | 0.00 | 0.00 | 71 | 1008.4 |
| 20260505212037 | 98 | 44 | 3.0 | 10.0 | 0.00 | 0.00 | 0.00 | 71 | 1008.5 |
| 20260505211548 | 98 | 116 | 3.0 | 10.0 | 0.00 | 0.00 | 0.00 | 71 | 1008.5 |
| 20260505211043 | 98 | 77 | 5.0 | 10.0 | 0.00 | 0.00 | 0.00 | 72 | 1008.5 |
| 20260505210538 | 98 | 71 | 4.0 | 10.0 | 0.00 | 0.00 | 0.00 | 70 | 1008.6 |
| 20260505210046 | 98 | 176 | 3.0 | 10.0 | 0.00 | 0.00 | 0.00 | 71 | 1008.7 |
| 20260505205539 | 98 | 84 | 3.0 | 10.0 | 0.00 | 0.00 | 0.00 | 71 | 1008.8 |
| 20260505205041 | 98 | 100 | 4.0 | 11.0 | 0.00 | 0.00 | 0.00 | 71 | 1008.8 |
| 20260505204554 | 98 | 123 | 3.0 | 11.0 | 0.00 | 0.00 | 0.00 | 71 | 1008.8 |
| 20260505204039 | 99 | 96 | 4.0 | 8.0 | 0.00 | 0.00 | 0.00 | 71 | 1008.9 |
| 20260505203539 | 98 | 121 | 2.0 | 10.0 | 0.00 | 0.00 | 0.00 | 72 | 1008.9 |
| 20260505203058 | 99 | 73 | 4.0 | 10.0 | 0.00 | 0.00 | 0.00 | 72 | 1009.0 |
| 20260505202539 | 98 | 89 | 4.0 | 9.0 | 0.00 | 0.00 | 0.00 | 72 | 1008.9 |
| 20260505202040 | 98 | 80 | 1.0 | 10.0 | 0.00 | 0.00 | 0.00 | 72 | 1009.0 |
| 20260505201551 | 98 | 0 | 2.0 | 10.0 | 0.00 | 0.00 | 0.00 | 72 | 1009.1 |
| 20260505201038 | 98 | 101 | 4.0 | 8.0 | 0.00 | 0.00 | 0.00 | 72 | 1009.0 |
| 20260505200539 | 98 | 88 | 1.0 | 8.0 | 0.00 | 0.00 | 0.00 | 73 | 1009.1 |
| 20260505200049 | 98 | 107 | 4.0 | 9.0 | 0.00 | 0.00 | 0.00 | 73 | 1009.2 |
| 20260505195538 | 98 | 73 | 4.0 | 9.0 | 0.00 | 0.00 | 0.00 | 73 | 1009.3 |
| 20260505195038 | 98 | 40 | 1.0 | 12.0 | 0.00 | 0.00 | 0.00 | 73 | 1009.3 |
| 20260505194548 | 98 | 74 | 3.0 | 12.0 | 0.00 | 0.00 | 0.00 | 73 | 1009.4 |
| 20260505194038 | 98 | 91 | 5.0 | 10.0 | 0.00 | 0.00 | 0.00 | 72 | 1009.5 |
| 20260505193541 | 98 | 38 | 2.0 | 8.0 | 0.00 | 0.00 | 0.00 | 73 | 1009.5 |
| 20260505193047 | 97 | 297 | 1.0 | 10.0 | 0.00 | 0.00 | 0.00 | 74 | 1009.5 |
| 20260505192539 | 98 | 57 | 4.0 | 12.0 | 0.00 | 0.00 | 0.00 | 73 | 1009.6 |
| 20260505192040 | 97 | 88 | 4.0 | 12.0 | 0.00 | 0.00 | 0.00 | 74 | 1009.5 |
| 20260505191606 | 97 | 199 | 2.0 | 7.0 | 0.00 | 0.00 | 0.00 | 73 | 1009.7 |
| 20260505191040 | 96 | 174 | 4.0 | 7.0 | 0.00 | 0.00 | 0.00 | 75 | 1009.7 |
| 20260505190540 | 96 | 116 | 2.0 | 8.0 | 0.00 | 0.00 | 0.00 | 74 | 1009.7 |
| 20260505190052 | 97 | 0 | 3.0 | 8.0 | 0.00 | 0.00 | 0.00 | 73 | 1009.8 |
| 20260505185538 | 97 | 90 | 1.0 | 8.0 | 0.00 | 0.00 | 0.00 | 73 | 1009.9 |
| 20260505185038 | 96 | 18 | 3.0 | 8.0 | 0.00 | 0.00 | 0.00 | 73 | 1010.0 |
| 20260505184549 | 97 | 146 | 4.0 | 8.0 | 0.00 | 0.00 | 0.00 | 72 | 1010.1 |
| 20260505184036 | 97 | 120 | 2.0 | 6.0 | 0.00 | 0.00 | 0.00 | 72 | 1010.2 |
| 20260505183539 | 97 | 0 | 1.0 | 6.0 | 0.00 | 0.00 | 0.00 | 71 | 1010.3 |
| 20260505183045 | 96 | 86 | 1.0 | 6.0 | 0.00 | 0.00 | 0.00 | 72 | 1010.4 |
| 20260505182538 | 96 | 169 | 2.0 | 7.0 | 0.00 | 0.00 | 0.00 | 72 | 1010.4 |
| 20260505182043 | 96 | 199 | 3.0 | 7.0 | 0.00 | 0.00 | 0.00 | 73 | 1010.6 |
| 20260505181548 | 96 | 165 | 3.0 | 9.0 | 0.00 | 0.00 | 0.00 | 73 | 1010.7 |
| 20260505181040 | 95 | 161 | 4.0 | 9.0 | 0.00 | 0.00 | 0.00 | 74 | 1010.8 |
| 20260505180539 | 95 | 145 | 3.0 | 7.0 | 0.00 | 0.00 | 0.00 | 73 | 1010.9 |
| 20260505175541 | 94 | 230 | 2.0 | 7.0 | 0.00 | 0.00 | 0.00 | 75 | 1010.9 |
| 20260505175039 | 95 | 174 | 2.0 | 7.0 | 0.00 | 0.00 | 0.00 | 74 | 1010.9 |
| 20260505174554 | 94 | 286 | 0.0 | 3.0 | 0.00 | 0.00 | 0.00 | 73 | 1011.0 |
| 20260505174041 | 93 | 0 | 0.0 | 8.0 | 0.00 | 0.00 | 0.00 | 73 | 1010.9 |
| 20260505173542 | 93 | 0 | 2.0 | 8.0 | 0.00 | 0.00 | 0.00 | 73 | 1011.1 |
| 20260505173049 | 93 | 140 | 5.0 | 8.0 | 0.00 | 0.00 | 0.00 | 73 | 1011.2 |
| 20260505172540 | 93 | 159 | 2.0 | 7.0 | 0.00 | 0.00 | 0.00 | 74 | 1011.2 |
| 20260505172040 | 93 | 130 | 3.0 | 6.0 | 0.00 | 0.00 | 0.00 | 75 | 1011.2 |
| 20260505171551 | 94 | 0 | 0.0 | 5.0 | 0.00 | 0.00 | 0.00 | 75 | 1011.2 |
| 20260505171041 | 92 | 201 | 1.0 | 9.0 | 0.00 | 0.00 | 0.00 | 75 | 1011.3 |
| 20260505170541 | 93 | 173 | 5.0 | 9.0 | 0.00 | 0.00 | 0.00 | 75 | 1011.3 |
| 20260505170049 | 93 | 107 | 2.0 | 7.0 | 0.00 | 0.00 | 0.00 | 76 | 1011.5 |
| 20260505165540 | 92 | 254 | 3.0 | 7.0 | 0.00 | 0.00 | 0.00 | 78 | 1011.6 |
| 20260505165041 | 91 | 180 | 2.0 | 9.0 | 0.00 | 0.00 | 0.00 | 79 | 1011.7 |
| 20260505164553 | 91 | 144 | 3.0 | 9.0 | 0.00 | 0.00 | 0.00 | 78 | 1011.9 |
| 20260505164041 | 91 | 184 | 4.0 | 10.0 | 0.00 | 0.00 | 0.00 | 78 | 1011.8 |
| 20260505163540 | 92 | 162 | 2.0 | 10.0 | 0.00 | 0.00 | 0.00 | 78 | 1011.9 |
| 20260505163050 | 92 | 336 | 1.0 | 9.0 | 0.00 | 0.00 | 0.00 | 79 | 1011.9 |
| 20260505162540 | 91 | 185 | 3.0 | 9.0 | 0.00 | 0.00 | 0.00 | 79 | 1012.0 |
| 20260505162041 | 91 | 178 | 4.0 | 9.0 | 0.00 | 0.00 | 0.00 | 78 | 1012.0 |
| 20260505161556 | 91 | 107 | 4.0 | 9.0 | 0.00 | 0.00 | 0.00 | 78 | 1012.0 |
| 20260505161038 | 91 | 69 | 2.0 | 8.0 | 0.00 | 0.00 | 0.00 | 80 | 1012.0 |
| 20260505160541 | 90 | 128 | 3.0 | 8.0 | 0.00 | 0.00 | 0.00 | 81 | 1012.2 |
| 20260505153050 | 88 | 144 | 2.0 | 6.0 | 0.00 | 0.00 | 0.00 | 83 | 1012.2 |
| 20260505152541 | 88 | 0 | 1.0 | 6.0 | 0.00 | 0.00 | 0.00 | 84 | 1012.1 |
| 20260505152045 | 87 | 156 | 1.0 | 6.0 | 0.00 | 0.00 | 0.00 | 84 | 1012.1 |
| 20260505151553 | 86 | 0 | 2.0 | 6.0 | 0.00 | 0.00 | 0.00 | 86 | 1012.2 |
| 20260505151043 | 86 | 145 | 3.0 | 8.0 | 0.00 | 0.00 | 0.00 | 86 | 1012.2 |
| 20260505150541 | 85 | 200 | 3.0 | 8.0 | 0.00 | 0.00 | 0.00 | 86 | 1012.2 |
| 20260505140541 | 82 | 119 | 2.0 | 8.0 | 0.00 | 0.00 | 0.00 | 92 | 1012.3 |
| 20260505125040 | 80 | 144 | 2.0 | 6.0 | 0.00 | 0.00 | 0.00 | 96 | 1011.9 |
| 20260505124552 | 79 | 92 | 1.0 | 4.0 | 0.00 | 0.00 | 0.00 | 97 | 1011.8 |
| 20260505124041 | 79 | 0 | 0.0 | 4.0 | 0.00 | 0.00 | 0.00 | 97 | 1011.8 |
| 20260505123540 | 79 | 0 | 0.0 | 3.0 | 0.00 | 0.00 | 0.00 | 97 | 1011.7 |
| 20260505123047 | 79 | 0 | 0.0 | 3.0 | 0.00 | 0.00 | 0.00 | 97 | 1011.8 |
| 20260505122540 | 79 | 0 | 0.0 | 3.0 | 0.00 | 0.00 | 0.00 | 97 | 1011.9 |
| 20260505122041 | 79 | 0 | 0.0 | 3.0 | 0.00 | 0.00 | 0.00 | 97 | 1011.9 |
| 20260505121549 | 79 | 0 | 0.0 | 2.0 | 0.00 | 0.00 | 0.00 | 97 | 1011.8 |
| 20260505121040 | 79 | 0 | 0.0 | 2.0 | 0.00 | 0.00 | 0.00 | 97 | 1011.8 |
| 20260505120541 | 79 | 0 | 0.0 | 2.0 | 0.00 | 0.00 | 0.00 | 97 | 1011.7 |
| 20260505120052 | 79 | 0 | 0.0 | 3.0 | 0.00 | 0.00 | 0.00 | 97 | 1011.6 |
| 20260505115539 | 79 | 0 | 0.0 | 3.0 | 0.00 | 0.00 | 0.00 | 97 | 1011.7 |
| 20260505115040 | 79 | 200 | 0.0 | 3.0 | 0.00 | 0.00 | 0.00 | 97 | 1011.6 |
| 20260505114556 | 79 | 192 | 0.0 | 4.0 | 0.00 | 0.00 | 0.00 | 97 | 1011.6 |
| 20260505114041 | 79 | 0 | 1.0 | 4.0 | 0.00 | 0.00 | 0.00 | 97 | 1011.5 |
| 20260505113540 | 79 | 187 | 1.0 | 4.0 | 0.00 | 0.00 | 0.00 | 97 | 1011.4 |
| 20260505113052 | 79 | 0 | 0.0 | 4.0 | 0.00 | 0.00 | 0.00 | 97 | 1011.5 |
| 20260505112543 | 79 | 0 | 1.0 | 4.0 | 0.00 | 0.00 | 0.00 | 97 | 1011.3 |
| 20260505112041 | 79 | 154 | 1.0 | 6.0 | 0.00 | 0.00 | 0.00 | 97 | 1011.4 |
| 20260505111549 | 79 | 186 | 1.0 | 6.0 | 0.00 | 0.00 | 0.00 | 97 | 1011.4 |
| 20260505111040 | 79 | 184 | 2.0 | 5.0 | 0.00 | 0.00 | 0.00 | 97 | 1011.3 |
| 20260505110540 | 79 | 181 | 1.0 | 5.0 | 0.00 | 0.00 | 0.00 | 97 | 1011.3 |
| 20260505102040 | 79 | 0 | 1.0 | 3.0 | 0.00 | 0.01 | 0.00 | 97 | 1011.3 |
| 20260505101602 | 79 | 191 | 1.0 | 3.0 | 0.00 | 0.01 | 0.00 | 97 | 1011.1 |
| 20260505101038 | 79 | 161 | 0.0 | 2.0 | 0.00 | 0.01 | 0.00 | 97 | 1011.1 |
| 20260505100541 | 79 | 0 | 0.0 | 2.0 | 0.00 | 0.01 | 0.00 | 97 | 1011.2 |
| 20260505095541 | 79 | 0 | 0.0 | 2.0 | 0.00 | 0.01 | 0.00 | 97 | 1011.1 |
| 20260505095044 | 79 | 0 | 0.0 | 3.0 | 0.00 | 0.01 | 0.00 | 97 | 1011.1 |
| 20260505094545 | 79 | 0 | 0.0 | 3.0 | 0.00 | 0.01 | 0.00 | 97 | 1011.0 |
| 20260505094041 | 79 | 0 | 0.0 | 2.0 | 0.00 | 0.01 | 0.00 | 97 | 1010.9 |
| 20260505093541 | 79 | 201 | 0.0 | 3.0 | 0.00 | 0.01 | 0.00 | 97 | 1011.0 |
| 20260505093100 | 79 | 0 | 0.0 | 5.0 | 0.00 | 0.01 | 0.00 | 97 | 1010.9 |
| 20260505092541 | 79 | 161 | 1.0 | 5.0 | 0.00 | 0.01 | 0.00 | 97 | 1010.8 |
| 20260505092041 | 79 | 201 | 1.0 | 4.0 | 0.00 | 0.01 | 0.00 | 97 | 1010.7 |
| 20260505091549 | 79 | 0 | 0.0 | 2.0 | 0.00 | 0.01 | 0.00 | 97 | 1010.7 |
| 20260505091043 | 79 | 193 | 0.0 | 3.0 | 0.00 | 0.01 | 0.00 | 97 | 1010.7 |
| 20260505090539 | 79 | 0 | 0.0 | 3.0 | 0.00 | 0.01 | 0.00 | 97 | 1010.7 |
| 20260505090049 | 79 | 0 | 0.0 | 3.0 | 0.00 | 0.01 | 0.00 | 97 | 1010.7 |
| 20260505085540 | 79 | 0 | 0.0 | 3.0 | 0.00 | 0.01 | 0.00 | 97 | 1010.7 |
| 20260505085041 | 79 | 142 | 0.0 | 4.0 | 0.00 | 0.01 | 0.00 | 97 | 1010.7 |
| 20260505084550 | 79 | 0 | 0.0 | 6.0 | 0.00 | 0.01 | 0.00 | 97 | 1010.6 |
| 20260505084041 | 79 | 119 | 2.0 | 6.0 | 0.00 | 0.01 | 0.00 | 97 | 1010.7 |
| 20260505083543 | 79 | 116 | 1.0 | 7.0 | 0.00 | 0.01 | 0.00 | 96 | 1010.6 |
| 20260505083045 | 79 | 128 | 2.0 | 8.0 | 0.00 | 0.01 | 0.00 | 96 | 1010.6 |
| 20260505082541 | 79 | 0 | 3.0 | 8.0 | 0.00 | 0.01 | 0.00 | 96 | 1010.7 |